Location: Blazny
(46.0612°N, 84.4033°W)
Time: 10:02:14
(UTC-04:00)

ARIANE 6 FM1 Upper Stage - Pass Details

Date: 19 September 2024
Orbit: 564 x 594 km, 62.0° (Epoch: 03 October)

Event Time Altitude Azimuth Distance (km) Brightness Sun altitude
Rises 22:12:19 0° 227° (SW) 2,775 6.4 -25.9°
Reaches altitude 10° 22:14:33 10° 230° (SW) 1,886 5.5 -26.2°
Enters shadow 22:16:59 33° 240° (WSW) 986 4.0 -26.6°
